Last 6 Hours

Alpine-Roundhouse Btm 6950'

15 Minute Data | America/Los_Angeles
as of 1/15/21 11:58 AM PST
Date & Time Temp (°F) RH (%) Dew Pt (°F) Wet Bulb (°F) Wind Dir (°) Wind Spd (mph) Wind Gust (mph) WindChill (°F) Barometric Pressure (inHg) New Snow (in) SnowDepth (in) Latest Rain (In) Daily Rain (In) Daily Min Temp (°F) Daily Max Temp (°F)
1/15/21 - 1145 57.1 20 16.4 39.6 SSE | 157 4.3 8.5 57.1 30.36 0.0 35.4 0.00 0.00 40.0 59.6
1/15/21 - 1130 57.1 21 17.8 39.9 SSE | 158 4.5 13.1 57.1 30.37 0.1 35.6 0.00 0.00 40.0 59.6
1/15/21 - 1115 57.6 22 18.8 40.4 SE | 146 6.1 13.7 57.6 30.38 0.0 35.2 0.00 0.00 40.0 59.6
1/15/21 - 1100 58.0 21 18.2 40.4 SSE | 158 3.2 7.4 58.0 30.39 0.0 35.1 0.00 0.00 40.0 59.6
1/15/21 - 1045 58.3 17 13.3 39.5 SSE | 165 3.4 6.8 58.3 30.40 0.1 35.2 0.00 0.00 40.0 59.6
1/15/21 - 1030 59.3 15 12.1 39.7 SSE | 160 3.6 9.9 59.3 30.39 0.0 35.0 0.00 0.00 40.0 59.6
1/15/21 - 1015 58.3 13 7.4 38.4 SSE | 162 3.6 7.2 58.3 30.41 0.0 35.1 0.00 0.00 40.0 59.6
1/15/21 - 1000 58.6 12 6.8 38.5 S | 187 1.9 5.3 58.6 30.39 0.0 35.2 0.00 0.00 40.0 58.8
1/15/21 - 0945 50.7 26 17.1 36.6 SSW | 202 0.7 2.9 50.7 30.40 0.0 35.2 0.00 0.00 40.0 50.8
1/15/21 - 0930 49.0 27 16.7 35.7 SSW | 210 0.3 2.7 49.0 30.40 0.0 35.0 0.00 0.00 40.0 49.0
1/15/21 - 0915 47.6 30 17.6 35.2 SSE | 155 0.2 1.8 47.6 30.40 0.0 34.9 0.00 0.00 40.0 47.8
1/15/21 - 0900 44.2 35 18.3 33.6 SSW | 209 0.3 2.6 44.2 30.40 0.0 35.0 0.00 0.00 40.0 44.3
1/15/21 - 0845 41.5 37 17.3 31.9 SSW | 202 0.2 2.4 41.5 30.41 0.1 35.5 0.00 0.00 40.0 42.4
1/15/21 - 0830 41.8 37 17.1 32.0 SSW | 212 0.6 3.4 41.8 30.41 0.2 35.6 0.00 0.00 40.0 42.4
1/15/21 - 0815 41.5 37 17.4 31.9 S | 186 0.1 0.8 41.5 30.40 0.1 35.5 0.00 0.00 40.0 42.4
1/15/21 - 0800 42.0 36 16.9 32.0 SSW | 195 0.5 3.5 42.0 30.40 0.2 35.6 0.00 0.00 40.0 42.4
1/15/21 - 0745 41.2 37 17.0 31.6 SSW | 193 1.1 5.2 41.2 30.41 0.2 35.6 0.00 0.00 40.0 42.4
1/15/21 - 0730 40.0 39 17.0 31.0 SSW | 211 0.1 2.9 40.0 30.41 0.1 35.6 0.00 0.00 40.0 42.4
1/15/21 - 0715 41.0 37 16.5 31.4 SSW | 207 1.9 5.5 41.0 30.41 0.2 35.8 0.00 0.00 40.1 42.4
1/15/21 - 0700 40.8 36 16.2 31.2 SSW | 199 0.2 2.3 40.8 30.41 0.1 35.6 0.00 0.00 40.1 42.4
1/15/21 - 0645 41.9 37 17.6 32.2 SSW | 210 1.3 3.7 41.9 30.41 0.1 35.4 0.00 0.00 40.1 42.4
1/15/21 - 0630 42.0 35 16.6 31.9 SSW | 209 1.0 3.4 42.0 30.41 0.2 35.7 0.00 0.00 40.1 42.3
1/15/21 - 0615 41.5 37 17.3 31.9 SSW | 211 1.0 3.5 41.5 30.41 0.1 35.7 0.00 0.00 40.1 42.3
1/15/21 - 0600 40.8 39 18.0 31.7 SSW | 208 1.6 3.2 40.8 30.42 0.2 35.7 0.00 0.00 40.1 42.3
Max 59.3 39 18.8 40.4 - 6.1 13.7 59.3 30.42 0.2 35.8 0.00 0.00 40.1 59.6
Avg 48.0 29 16.1 34.9 - 1.7 5.1 48.0 30.40 0.1 35.4 0.00 - - -
Min 40.0 12 6.8 31.0 - 0.1 0.8 40.0 30.36 0.0 34.9 0.00 0.00 40.0 42.3
Total - - - - - - - - - - - 0.00 - - -